Home   Weather   Geesthacht   Past weeks

Flag for Germany Past Weather in Geesthacht, Schleswig-Holstein, Germany — Yesterday and Last 2 Weeks

Now
54 °F

Partly sunny.


Feels Like: 51 °F
Forecast: 48 / 53 °F
Wind: 8 mph from South

Location: Hamburg-Fuhlsbuettel

Current Time: Oct 21, 2017 at 12:10:03 pm

Latest Report: Oct 21, 2017 at 11:20 am


Visibility: N/A

Pressure: 29.89 "Hg

Humidity: 82%

Dew Point: 48 °F

Location of GeesthachtLocation

Past Weather in Geesthacht — Graph

°F

Geesthacht Temperature Yesterday

Maximum temperature yesterday: 59 °F (at 3:20 pm)
Minimum temperature yesterday: 54 °F (at 12:20 am)
Average temperature yesterday: 55 °F

High & Low Weather Summary for the Past Weeks

 TemperatureHumidityPressure
High72 °F (Oct 15, 3:50 pm)100% (Oct 7, 3:50 pm)30.27 "Hg (Oct 7, 3:50 pm)
Low36 °F (Oct 9, 3:50 am)55% (Oct 8, 1:20 pm)29.62 "Hg (Oct 7, 7:50 pm)
Average55 °F89%29.98 "Hg
* Reported Oct 6 10:20 am — Oct 21 10:50 am, Geesthacht. Weather by CustomWeather, © 2017

Note: Actual official high and low records may vary slightly from our data, if they occured in-between our weather recording intervals... More about our weather records

Advertising

Geesthacht Weather History for the Previous 24 Hours

Scroll right to see more
 ConditionsComfort  
Time TempWeatherWind HumidityBarometerVisibility
10:50 am
Sat, Oct 21
54 °FPartly sunny.7 mph88%29.89 "HgN/A
10:20 am54 °FPartly sunny.6 mph82%29.89 "HgN/A
9:50 am54 °FPartly sunny.6 mph82%29.89 "HgN/A
9:20 am54 °FPartly sunny.6 mph82%29.89 "HgN/A
8:50 am54 °FBroken clouds.8 mph88%29.89 "HgN/A
8:20 am52 °FPartly sunny.6 mph94%29.89 "HgN/A
7:50 am52 °FPassing clouds.6 mph94%29.89 "HgN/A
7:20 am52 °FPassing clouds.7 mph94%29.86 "HgN/A
6:50 am52 °FPassing clouds.8 mph94%29.86 "HgN/A
6:20 am52 °FPassing clouds.9 mph94%29.86 "HgN/A
5:50 am52 °FPassing clouds.8 mph94%29.86 "HgN/A
5:20 am52 °FPassing clouds.8 mph94%29.86 "HgN/A
4:50 am52 °FPassing clouds.10 mph94%29.86 "HgN/A
4:20 am52 °FPartly cloudy.10 mph94%29.86 "HgN/A
3:50 am52 °FPartly cloudy.9 mph100%29.86 "HgN/A
3:20 am52 °FPassing clouds.9 mph94%29.86 "Hg3 mi
2:50 am54 °FLight rain. Passing clouds.9 mph88%29.86 "HgN/A
1:50 am54 °FPassing clouds.8 mph94%29.86 "HgN/A
1:20 am54 °FPassing clouds.7 mph94%29.86 "HgN/A
12:50 am54 °FPassing clouds.8 mph94%29.86 "HgN/A
12:20 am54 °FPassing clouds.12 mph94%29.86 "HgN/A
11:50 pm
Fri, Oct 20
54 °FSprinkles. Partly cloudy.10 mph94%29.86 "HgN/A
11:20 pm54 °FSprinkles. Partly cloudy.10 mph94%29.86 "Hg5 mi
10:50 pm54 °FSprinkles. Partly cloudy.13 mph94%29.86 "HgN/A
10:20 pm55 °FSprinkles. Passing clouds.10 mph88%29.86 "HgN/A
9:50 pm54 °FPassing clouds.7 mph94%29.86 "HgN/A
9:20 pm55 °FPassing clouds.7 mph88%29.86 "HgN/A
8:50 pm54 °FPartly cloudy.7 mph94%29.86 "HgN/A
8:20 pm55 °FPassing clouds.10 mph88%29.83 "HgN/A
7:50 pm54 °FPassing clouds.6 mph94%29.83 "HgN/A
7:20 pm55 °FPassing clouds.9 mph94%29.83 "HgN/A
6:50 pm57 °FPassing clouds.10 mph88%29.83 "HgN/A
6:20 pm57 °FPassing clouds.13 mph88%29.80 "HgN/A
5:50 pm57 °FScattered showers. Scattered clouds.14 mph94%29.80 "HgN/A
5:20 pm57 °FSprinkles. Partly sunny.13 mph94%29.80 "HgN/A
4:50 pm57 °FLight rain. Broken clouds.13 mph94%29.80 "HgN/A
4:20 pm57 °FLight rain. Partly sunny.16 mph94%29.80 "HgN/A
3:50 pm59 °FLight rain. Partly sunny.13 mph88%29.77 "HgN/A
3:20 pm59 °FLight rain. Partly sunny.13 mph88%29.80 "HgN/A
2:50 pm57 °FPartly sunny.10 mph94%29.80 "HgN/A
2:20 pm57 °FLight rain. Partly sunny.12 mph94%29.80 "HgN/A
1:50 pm57 °FRain. Broken clouds.12 mph94%29.83 "Hg4 mi
1:20 pm57 °FLight rain. Clear.6 mph88%29.83 "Hg6 mi
12:50 pm57 °FLight rain. Clear.5 mph88%29.86 "HgN/A
12:20 pm57 °FLight rain. Clear.7 mph88%29.86 "HgN/A
Weather by CustomWeather, © 2017

See weather overview